{"data":{"norad_id":58407,"epoch":"2026-05-24T23:19:25.870944Z","epoch_age_seconds":70675,"freshness":"FRESH","line1":"1 58407U 23180F   26144.97182721 -.00001222  00000+0 -34907-4 0  9997","line2":"2 58407  43.0031 341.6386 0000848 278.5175  81.5581 15.27582868139297","mean_motion":15.27582868,"eccentricity":8.48e-5,"inclination_deg":43.0031,"raan_deg":341.6386,"arg_perigee_deg":278.5175,"mean_anomaly_deg":81.5581,"bstar":-3.4907e-5,"rev_number":13929,"period_min":94.266571730104,"perigee_km":482.45868037663,"apogee_km":483.62233608203,"semimajor_km":6861.1775082293,"source":"CELESTRAK","updated_at":"2026-05-25T13:38:18.617601Z"}}